Time_in_sec,gx,gy,gz
1312472348.34444118,-0.10954338,-0.00253952,-0.99397877
1312472348.39598155,-0.10928853,-0.00296500,-0.99400565
1312472348.44330764,-0.10905705,-0.00285221,-0.99403140
1312472348.49644089,-0.10913857,-0.00317782,-0.99402147
1312472348.54333758,-0.10920036,-0.00322743,-0.99401452
1312472348.59532261,-0.10932553,-0.00357510,-0.99399957
1312472348.64333487,-0.10936867,-0.00375306,-0.99399417
1312472348.69649386,-0.10935499,-0.00364984,-0.99399606
1312472348.74329877,-0.10935241,-0.00370358,-0.99399614
1312472348.79643250,-0.10943836,-0.00358173,-0.99398713
1312472348.84347868,-0.10995465,-0.00350847,-0.99393041
1312472348.89542103,-0.11007262,-0.00367672,-0.99391675
1312472348.94439054,-0.11004537,-0.00361384,-0.99391999
1312472348.99551368,-0.10986629,-0.00360696,-0.99393983
1312472349.04329681,-0.10995575,-0.00352212,-0.99393024
1312472349.09272265,-0.11057008,-0.00366204,-0.99386158
1312472349.14340258,-0.11065325,-0.00366341,-0.99385232
1312472349.19271898,-0.11070236,-0.00355448,-0.99384725
1312472349.24332094,-0.11080780,-0.00366117,-0.99383511
1312472349.29541278,-0.11085657,-0.00349112,-0.99383028
1312472349.34332108,-0.11139435,-0.00379383,-0.99376904
1312472349.39540648,-0.11143566,-0.00359523,-0.99376515
1312472349.44444227,-0.11159491,-0.00351907,-0.99374755
1312472349.49542141,-0.11162673,-0.00354067,-0.99374390
1312472349.54443550,-0.11151950,-0.00336288,-0.99375656
1312472349.59245729,-0.11173662,-0.00294232,-0.99373350
1312472349.64331603,-0.11160561,-0.00291500,-0.99374830
1312472349.69642496,-0.11161906,-0.00302561,-0.99374646
1312472349.74331570,-0.11167674,-0.00300457,-0.99374005
1312472349.79561996,-0.11153778,-0.00308928,-0.99375539
1312472349.84331918,-0.11183687,-0.00275898,-0.99372275
1312472349.89541626,-0.11202709,-0.00253681,-0.99370191
1312472349.94342852,-0.11218309,-0.00263791,-0.99368405
1312472349.99642825,-0.11197374,-0.00259783,-0.99370777
1312472350.04332018,-0.11191177,-0.00265049,-0.99371461
1312472350.09530854,-0.11189912,-0.00250180,-0.99371642
1312472350.14442706,-0.11172560,-0.00226359,-0.99373652
1312472350.19530368,-0.11184568,-0.00251903,-0.99372240
1312472350.24441504,-0.11178154,-0.00250373,-0.99372965
1312472350.29642081,-0.11174712,-0.00263772,-0.99373317
1312472350.34329557,-0.11156613,-0.00267355,-0.99375342
1312472350.39634919,-0.11153241,-0.00256907,-0.99375748
1312472350.44332361,-0.11150079,-0.00255723,-0.99376106
1312472350.49633551,-0.11157679,-0.00272488,-0.99375208
1312472350.54331851,-0.11153071,-0.00278813,-0.99375708
1312472350.59527874,-0.11133394,-0.00258174,-0.99377970
1312472350.64403152,-0.11160784,-0.00263566,-0.99374883
1312472350.69527793,-0.11132913,-0.00267321,-0.99377999
1312472350.74329162,-0.11144355,-0.00263568,-0.99376727
1312472350.79306531,-0.11139751,-0.00265940,-0.99377237
1312472350.84330702,-0.11166025,-0.00194702,-0.99374453
1312472350.89535475,-0.11190150,-0.00212123,-0.99371704
1312472350.94444370,-0.11173006,-0.00219294,-0.99373617
1312472350.99562693,-0.11193109,-0.00186297,-0.99371422
1312472351.04330087,-0.11172585,-0.00186941,-0.99373731
1312472351.09533763,-0.11178173,-0.00181384,-0.99373113
1312472351.14330006,-0.11142085,-0.00175874,-0.99377176
1312472351.19529104,-0.11126410,-0.00185303,-0.99378915
1312472351.24331260,-0.11126250,-0.00181699,-0.99378939
1312472351.29532790,-0.11130300,-0.00193294,-0.99378464
1312472351.34330201,-0.11141118,-0.00202080,-0.99377234
1312472351.39540672,-0.11138773,-0.00210187,-0.99377480
1312472351.44333911,-0.11141201,-0.00217849,-0.99377191
1312472351.49540329,-0.11134046,-0.00209763,-0.99378011
1312472351.54334354,-0.11128372,-0.00227892,-0.99378606
1312472351.59542227,-0.11136181,-0.00218999,-0.99377752
1312472351.64348602,-0.11151551,-0.00225388,-0.99376014
1312472351.69541526,-0.11154646,-0.00209254,-0.99375702
1312472351.74331474,-0.11143699,-0.00211970,-0.99376924
1312472351.79541445,-0.11141522,-0.00190849,-0.99377211
1312472351.84443498,-0.11097144,-0.00158161,-0.99382234
1312472351.89543581,-0.11080452,-0.00163739,-0.99384087
1312472351.94443583,-0.11102650,-0.00147847,-0.99381635
1312472351.99541116,-0.11120883,-0.00165275,-0.99379569
1312472352.04281425,-0.11119062,-0.00147395,-0.99379800
1312472352.09540844,-0.11112506,-0.00171526,-0.99380495
1312472352.14442849,-0.11101913,-0.00166659,-0.99381687
1312472352.19542813,-0.11116148,-0.00151443,-0.99380120
1312472352.24436116,-0.11106373,-0.00152566,-0.99381212
1312472352.29530191,-0.11117277,-0.00142908,-0.99380007
1312472352.34443498,-0.11101532,-0.00141342,-0.99381769
1312472352.39541340,-0.11101498,-0.00115584,-0.99381806
1312472352.44330764,-0.11074946,-0.00114233,-0.99384770
1312472352.49646544,-0.11055350,-0.00110135,-0.99386956
1312472352.54446387,-0.11032457,-0.00130553,-0.99389476
1312472352.59631515,-0.11008600,-0.00177861,-0.99392047
1312472352.64731050,-0.11002403,-0.00152103,-0.99392776
1312472352.69541216,-0.10979784,-0.00167069,-0.99395254
1312472352.74445653,-0.10982028,-0.00171255,-0.99394998
1312472352.79646230,-0.10970961,-0.00155187,-0.99396247
1312472352.84350038,-0.10933032,-0.00116208,-0.99400479
1312472352.89642596,-0.10925944,-0.00087270,-0.99401288
1312472352.94343829,-0.10928662,-0.00092060,-0.99400985
1312472352.99642015,-0.10932116,-0.00106546,-0.99400591
1312472353.04330611,-0.10928992,-0.00083159,-0.99400957
1312472353.09642839,-0.10928173,0.00013090,-0.99401081
1312472353.14442945,-0.10920648,0.00009856,-0.99401908
1312472353.19242525,-0.10927877,0.00000299,-0.99401114
1312472353.24331260,-0.10923611,-0.00004584,-0.99401583
1312472353.29587388,-0.10946509,-0.00010148,-0.99399064
1312472353.34434104,-0.10990486,0.00001793,-0.99394211
1312472353.39233541,-0.10958632,0.00029128,-0.99397724
1312472353.44434309,-0.10960030,0.00006022,-0.99397574
1312472353.49633908,-0.10958540,-0.00002191,-0.99397738
1312472353.54432988,-0.10971035,-0.00006857,-0.99396360
1312472353.59632683,-0.10976619,-0.00010837,-0.99395743
1312472353.64331102,-0.10991967,-0.00005122,-0.99394047
1312472353.69532514,-0.10983579,0.00011103,-0.99394974
1312472353.74330330,-0.10975856,0.00017970,-0.99395826
1312472353.79532671,-0.10955708,-0.00001005,-0.99398051
1312472353.84329867,-0.10940642,-0.00008389,-0.99399710
1312472353.89532614,-0.10926526,0.00002590,-0.99401263
1312472353.94443560,-0.10908714,-0.00016505,-0.99403218
1312472353.99532247,-0.10909023,-0.00023124,-0.99403182
1312472354.04332376,-0.10918386,-0.00030890,-0.99402152
1312472354.09535074,-0.10902083,-0.00014342,-0.99403946
1312472354.14443040,-0.10893449,-0.00034358,-0.99404887
1312472354.19529557,-0.10894096,-0.00060861,-0.99404804
1312472354.24340630,-0.10882138,-0.00054027,-0.99406117
1312472354.29644179,-0.10877373,-0.00052700,-0.99406640
1312472354.34335160,-0.10815950,-0.00062457,-0.99413336
1312472354.39542413,-0.10823482,-0.00077945,-0.99412505
1312472354.44347930,-0.10818765,-0.00102601,-0.99412996
1312472354.49542284,-0.10810334,-0.00115951,-0.99413899
1312472354.54329419,-0.10808045,-0.00150361,-0.99414101
1312472354.59634137,-0.10805170,-0.00175511,-0.99414373
1312472354.64371634,-0.10782640,-0.00158479,-0.99416848
1312472354.69541383,-0.10798159,-0.00173153,-0.99415139
1312472354.74436045,-0.10798601,-0.00181502,-0.99415076
1312472354.79540181,-0.10793815,-0.00221643,-0.99415514
1312472354.84432817,-0.10770584,-0.00227867,-0.99418019
1312472354.89644337,-0.10799218,-0.00230723,-0.99414907
1312472354.94443631,-0.10803151,-0.00203585,-0.99414539
1312472354.99632311,-0.10800827,-0.00180692,-0.99414835
1312472355.04332614,-0.10810332,-0.00199062,-0.99413767
1312472355.09643984,-0.10802165,-0.00206592,-0.99414639
1312472355.14334583,-0.10825960,-0.00221013,-0.99412020
1312472355.19542670,-0.10793582,-0.00217313,-0.99415549
1312472355.24333858,-0.10791169,-0.00227487,-0.99415788
1312472355.29642558,-0.10803691,-0.00254194,-0.99414363
1312472355.34329653,-0.10754320,-0.00253504,-0.99419718
1312472355.39532185,-0.10761387,-0.00246776,-0.99418970
1312472355.44341087,-0.10750996,-0.00246632,-0.99420095
1312472355.49644780,-0.10714777,-0.00260929,-0.99423968
1312472355.54342031,-0.10714758,-0.00267409,-0.99423953
1312472355.59532762,-0.10594501,-0.00298659,-0.99436750
1312472355.64331794,-0.10618747,-0.00316413,-0.99434109
1312472355.69540977,-0.10609947,-0.00294368,-0.99435116
1312472355.74329662,-0.10608080,-0.00295340,-0.99435313
1312472355.79632258,-0.10608314,-0.00295759,-0.99435287
1312472355.84343863,-0.10618536,-0.00322668,-0.99434112
1312472355.89638448,-0.10614487,-0.00347096,-0.99434462
1312472355.94342947,-0.10607565,-0.00347943,-0.99435197
1312472355.98754525,-0.10601176,-0.00346398,-0.99435884
1312472356.03628922,-0.10609447,-0.00333242,-0.99435047
1312472356.09645343,-0.10650091,-0.00369787,-0.99430573
1312472356.13565969,-0.10637071,-0.00352324,-0.99432030
1312472356.19242549,-0.10660311,-0.00337476,-0.99429593
1312472356.23614216,-0.10641446,-0.00353771,-0.99431557
1312472356.28437400,-0.10658742,-0.00353334,-0.99429706
1312472356.33656907,-0.10647371,-0.00378947,-0.99430830
1312472356.39538550,-0.10623406,-0.00372788,-0.99433416
1312472356.43642354,-0.10646462,-0.00374738,-0.99430943
1312472356.48435712,-0.10637088,-0.00389878,-0.99431888
1312472356.53531337,-0.10626819,-0.00389111,-0.99432989
1312472356.58728480,-0.10657992,-0.00409626,-0.99429570
1312472356.63665080,-0.10650311,-0.00402555,-0.99430422
1312472356.68431544,-0.10632698,-0.00383857,-0.99432381
1312472356.73528147,-0.10647136,-0.00368366,-0.99430895
1312472356.78442550,-0.10641861,-0.00343155,-0.99431550
1312472356.83638406,-0.10704459,-0.00329349,-0.99424877
1312472356.89532685,-0.10704066,-0.00337925,-0.99424890
1312472356.93668389,-0.10718924,-0.00327170,-0.99423325
1312472356.99628973,-0.10721686,-0.00344196,-0.99422970
1312472357.03628469,-0.10702117,-0.00352137,-0.99425051
1312472357.08442616,-0.10664276,-0.00397422,-0.99428946
1312472357.13536429,-0.10670829,-0.00402811,-0.99428221
1312472357.18443704,-0.10673399,-0.00417785,-0.99427883
1312472357.23630166,-0.10669853,-0.00399650,-0.99428339
1312472357.28444672,-0.10691353,-0.00392233,-0.99426059
1312472357.33532405,-0.10688712,-0.00434555,-0.99426167
1312472357.39531565,-0.10692589,-0.00416883,-0.99425825
1312472357.43630099,-0.10688019,-0.00406388,-0.99426360
1312472357.48429060,-0.10683867,-0.00404214,-0.99426815
1312472357.53535485,-0.10683628,-0.00379966,-0.99426937
1312472357.58767438,-0.10676035,-0.00420649,-0.99427588
1312472357.63628769,-0.10698535,-0.00419885,-0.99425173
1312472357.68729091,-0.10707350,-0.00416365,-0.99424239
1312472357.74030876,-0.10716501,-0.00396155,-0.99423336
1312472357.79533434,-0.10716151,-0.00417422,-0.99423286
1312472357.83627605,-0.10686904,-0.00398263,-0.99426513
1312472357.88834119,-0.10689607,-0.00396317,-0.99426230
1312472357.93629646,-0.10707993,-0.00412705,-0.99424185
1312472357.98741794,-0.10728593,-0.00389092,-0.99422059
1312472358.03527236,-0.10720480,-0.00396980,-0.99422903
1312472358.08443880,-0.10680169,-0.00425579,-0.99427123
1312472358.13531137,-0.10665785,-0.00449260,-0.99428563
1312472358.19643998,-0.10680064,-0.00440480,-0.99427070
1312472358.23717570,-0.10696790,-0.00438473,-0.99425281
1312472358.28464842,-0.10686401,-0.00424505,-0.99426458
1312472358.33540583,-0.10651152,-0.00372904,-0.99430448
1312472358.38742399,-0.10643664,-0.00388120,-0.99431191
1312472358.43628430,-0.10668912,-0.00370971,-0.99428551
1312472358.48455644,-0.10665449,-0.00371695,-0.99428920
1312472358.53532434,-0.10671575,-0.00366721,-0.99428281
1312472358.58741140,-0.10644941,-0.00321694,-0.99431292
1312472358.63637185,-0.10667023,-0.00319118,-0.99428933
1312472358.68404341,-0.10628805,-0.00295903,-0.99433098
1312472358.73635864,-0.10654740,-0.00296730,-0.99430320
1312472358.78449225,-0.10619988,-0.00302398,-0.99434020
1312472358.83635283,-0.10581535,-0.00346814,-0.99437975
1312472358.88729811,-0.10582931,-0.00360982,-0.99437776
1312472358.93639970,-0.10600396,-0.00351973,-0.99435948
1312472358.99555874,-0.10570915,-0.00378047,-0.99438990
1312472359.03643799,-0.10556594,-0.00368304,-0.99440548
1312472359.08732963,-0.10596068,-0.00351403,-0.99436411
1312472359.13643670,-0.10606091,-0.00385346,-0.99435217
1312472359.18439770,-0.10589250,-0.00371584,-0.99437064
1312472359.23660827,-0.10608335,-0.00383328,-0.99434985
1312472359.28430057,-0.10620795,-0.00366812,-0.99433717
1312472359.33530259,-0.10720501,-0.00381935,-0.99422960
1312472359.39331484,-0.10721594,-0.00367052,-0.99422898
1312472359.43630481,-0.10718327,-0.00370961,-0.99423236
1312472359.48438501,-0.10704577,-0.00369315,-0.99424723
1312472359.53631854,-0.10713999,-0.00369714,-0.99423707
1312472359.58442807,-0.10697117,-0.00353381,-0.99425584
1312472359.63645673,-0.10697394,-0.00345539,-0.99425582
1312472359.68738270,-0.10694436,-0.00347403,-0.99425894
1312472359.73768306,-0.10681885,-0.00348313,-0.99427240
1312472359.78433204,-0.10684477,-0.00344084,-0.99426976
1312472359.83630896,-0.10685503,-0.00362476,-0.99426800
1312472359.88514829,-0.10666600,-0.00368957,-0.99428806
1312472359.93632817,-0.10673964,-0.00358275,-0.99428055
1312472359.98444223,-0.10665992,-0.00345688,-0.99428955
1312472360.03653526,-0.10668943,-0.00347047,-0.99428634
1312472360.08443522,-0.10715358,-0.00330644,-0.99423698
1312472360.13642931,-0.10710599,-0.00314135,-0.99424265
1312472360.18734431,-0.10720458,-0.00344393,-0.99423102
1312472360.23639083,-0.10732156,-0.00350797,-0.99421817
1312472360.28444743,-0.10729718,-0.00340538,-0.99422116
1312472360.33630610,-0.10690224,-0.00346187,-0.99426351
1312472360.38731527,-0.10687483,-0.00335072,-0.99426684
1312472360.43629646,-0.10685764,-0.00313851,-0.99426938
1312472360.48432612,-0.10671758,-0.00311270,-0.99428450
1312472360.53533721,-0.10687743,-0.00317835,-0.99426712
1312472360.59549928,-0.10638349,-0.00374717,-0.99431811
1312472360.63628340,-0.10628643,-0.00352096,-0.99432932
1312472360.68442845,-0.10646129,-0.00317152,-0.99431179
1312472360.73663259,-0.10628921,-0.00321934,-0.99433005
1312472360.78437805,-0.10647421,-0.00351176,-0.99430926
1312472360.83632421,-0.10667369,-0.00342835,-0.99428817
1312472360.88741589,-0.10652854,-0.00332696,-0.99430408
1312472360.93540525,-0.10652932,-0.00346765,-0.99430351
1312472360.99641418,-0.10652909,-0.00335529,-0.99430392
1312472361.03630543,-0.10654346,-0.00350784,-0.99430186
1312472361.08730245,-0.10700711,-0.00320722,-0.99425308
1312472361.13544321,-0.10708730,-0.00313857,-0.99424467
1312472361.18438721,-0.10702628,-0.00310292,-0.99425135
1312472361.23933220,-0.10714384,-0.00305342,-0.99423884
1312472361.28431416,-0.10717748,-0.00316827,-0.99423486
1312472361.33540964,-0.10681529,-0.00299622,-0.99427437
1312472361.39530945,-0.10678539,-0.00296393,-0.99427768
1312472361.43648100,-0.10702443,-0.00296145,-0.99425198
1312472361.48741221,-0.10728922,-0.00296058,-0.99422345
1312472361.53529644,-0.10735169,-0.00312381,-0.99421620
1312472361.58741307,-0.10723300,-0.00333633,-0.99422832
1312472361.63638687,-0.10721993,-0.00359217,-0.99422884
1312472361.68743563,-0.10719482,-0.00355898,-0.99423167
1312472361.73543429,-0.10739692,-0.00352992,-0.99420996
1312472361.78431606,-0.10725207,-0.00338263,-0.99422611
1312472361.83630514,-0.10686057,-0.00319519,-0.99426888
1312472361.88729382,-0.10709677,-0.00328414,-0.99424318
1312472361.93561220,-0.10707038,-0.00322543,-0.99424621
1312472361.98744416,-0.10716640,-0.00325277,-0.99423578
1312472362.04330850,-0.10736295,-0.00351229,-0.99421369
1312472362.08436346,-0.10765735,-0.00307416,-0.99418331
1312472362.13535166,-0.10750940,-0.00331499,-0.99419854
1312472362.19643044,-0.10744280,-0.00328551,-0.99420584
1312472362.23637152,-0.10738861,-0.00348391,-0.99421102
1312472362.28441310,-0.10747207,-0.00351377,-0.99420189
1312472362.33533359,-0.10754736,-0.00337364,-0.99419424
1312472362.38393140,-0.10775513,-0.00341308,-0.99417161
1312472362.43660116,-0.10781906,-0.00319018,-0.99416542
1312472362.48441148,-0.10798738,-0.00334185,-0.99414665
1312472362.53628325,-0.10788346,-0.00334292,-0.99415793
1312472362.59533262,-0.10735170,-0.00319889,-0.99421596
1312472362.63632655,-0.10732428,-0.00316050,-0.99421905
1312472362.68439150,-0.10736450,-0.00315919,-0.99421471
1312472362.73629832,-0.10720650,-0.00335269,-0.99423112
1312472362.78437543,-0.10714271,-0.00342913,-0.99423774
1312472362.83532071,-0.10700097,-0.00285509,-0.99425482
1312472362.88731098,-0.10683431,-0.00281566,-0.99427285
1312472362.93629766,-0.10672254,-0.00291168,-0.99428458
1312472362.99533892,-0.10671383,-0.00294906,-0.99428540
1312472363.03637218,-0.10670263,-0.00278635,-0.99428707
1312472363.08843136,-0.10721799,-0.00288877,-0.99423134
1312472363.13645387,-0.10734641,-0.00282394,-0.99421767
1312472363.18787742,-0.10761126,-0.00280074,-0.99418910
1312472363.23732710,-0.10759998,-0.00282747,-0.99419025
1312472363.28781676,-0.10746618,-0.00276129,-0.99420491
1312472363.33633924,-0.10782575,-0.00307028,-0.99416507
1312472363.38521671,-0.10780304,-0.00300501,-0.99416773
1312472363.43633008,-0.10775340,-0.00282499,-0.99417364
1312472363.48434663,-0.10781398,-0.00294087,-0.99416673
1312472363.53634596,-0.10780715,-0.00272313,-0.99416810
1312472363.58493471,-0.10783498,-0.00285160,-0.99416472
1312472363.63629365,-0.10751986,-0.00257223,-0.99419961
1312472363.68437791,-0.10755935,-0.00245689,-0.99419563
1312472363.74030662,-0.10739650,-0.00235395,-0.99421348
1312472363.79541898,-0.10738617,-0.00223297,-0.99421488
1312472363.83629489,-0.10700137,-0.00222382,-0.99425639
1312472363.88576412,-0.10695182,-0.00209588,-0.99426200
1312472363.93630385,-0.10675039,-0.00209362,-0.99428365
1312472363.98444915,-0.10679756,-0.00218344,-0.99427839
1312472364.03531694,-0.10681392,-0.00226470,-0.99427645
1312472364.08433437,-0.10579666,-0.00218080,-0.99438539
1312472364.13608479,-0.10585365,-0.00202679,-0.99437965
1312472364.19644570,-0.10575739,-0.00206487,-0.99438982
1312472364.23629713,-0.10620899,-0.00207071,-0.99434167
1312472364.28434587,-0.10648130,-0.00222589,-0.99431221
1312472364.33541107,-0.10610014,-0.00226200,-0.99435288
1312472364.38829970,-0.10586916,-0.00184644,-0.99437835
1312472364.43628931,-0.10570299,-0.00181959,-0.99439608
1312472364.48843741,-0.10560849,-0.00174473,-0.99440626
1312472364.53629804,-0.10561764,-0.00187442,-0.99440505
1312472364.59261227,-0.10553576,-0.00207692,-0.99441334
1312472364.63628745,-0.10540347,-0.00216354,-0.99442719
1312472364.68442965,-0.10546697,-0.00243900,-0.99441982
1312472364.73547554,-0.10509677,-0.00240254,-0.99445910
1312472364.78743076,-0.10496691,-0.00241636,-0.99447278
1312472364.83631301,-0.10448806,-0.00279919,-0.99452220
1312472364.88429713,-0.10426195,-0.00267256,-0.99454628
1312472364.94445086,-0.10406123,-0.00260960,-0.99456747
1312472364.99530339,-0.10400638,-0.00242279,-0.99457368
1312472365.03545260,-0.10386446,-0.00223801,-0.99458894
1312472365.08343792,-0.10358318,-0.00199068,-0.99461880
1312472365.13536215,-0.10349916,-0.00204147,-0.99462745
1312472365.18442035,-0.10321711,-0.00209179,-0.99465665
1312472365.24332166,-0.10325734,-0.00212587,-0.99465240
1312472365.28441930,-0.10338685,-0.00233436,-0.99463848
1312472365.33629751,-0.10277699,-0.00225227,-0.99470187
1312472365.39231324,-0.10265604,-0.00184385,-0.99471520
1312472365.43630028,-0.10258083,-0.00137239,-0.99472372
1312472365.49243546,-0.10246221,-0.00124682,-0.99473612
1312472365.53646469,-0.10253940,-0.00119788,-0.99472822
1312472365.59241962,-0.10221764,-0.00064145,-0.99476185
1312472365.63320804,-0.10204139,-0.00056682,-0.99477999
1312472365.68435621,-0.10179610,-0.00063128,-0.99480508
1312472365.73543072,-0.10171245,-0.00073670,-0.99481357
1312472365.79530644,-0.10166667,-0.00081186,-0.99481819
1312472365.83662963,-0.10252693,-0.00067399,-0.99473000
1312472365.89687109,-0.10243303,-0.00081414,-0.99473957
1312472365.93668795,-0.10264276,-0.00038122,-0.99471821
1312472365.99553299,-0.10274770,-0.00006597,-0.99470745
1312472366.03629899,-0.10305391,0.00017698,-0.99467576
1312472366.09572101,-0.10390839,-0.00044665,-0.99458677
1312472366.13629365,-0.10412212,-0.00031328,-0.99456447
1312472366.19603229,-0.10407812,-0.00040904,-0.99456904
1312472366.23661709,-0.10395813,-0.00064341,-0.99458147
1312472366.28443909,-0.10401965,-0.00064764,-0.99457503
1312472366.33633757,-0.10415962,-0.00100765,-0.99456008
1312472366.39637303,-0.10419510,-0.00107467,-0.99455630
1312472366.43645835,-0.10443887,-0.00100391,-0.99453080
1312472366.49650979,-0.10450744,-0.00119536,-0.99452339
1312472366.53692079,-0.10445912,-0.00116480,-0.99452850
1312472366.59643841,-0.10409328,-0.00089143,-0.99456714
1312472366.63667893,-0.10385908,-0.00099824,-0.99459152
1312472366.68490696,-0.10394258,-0.00089504,-0.99458290
1312472366.74328232,-0.10356242,-0.00101097,-0.99462244
1312472366.78836656,-0.10378406,-0.00098954,-0.99459936
1312472366.84331036,-0.10317469,-0.00093454,-0.99466281
1312472366.88443398,-0.10297180,-0.00129709,-0.99468343
1312472366.93678999,-0.10309267,-0.00165512,-0.99467038
1312472366.98431873,-0.10292707,-0.00170289,-0.99468745
1312472367.03627086,-0.10281206,-0.00158564,-0.99469954
1312472367.08742476,-0.10235563,-0.00217188,-0.99474550
